March 14-16, 2019
|
Charlotte-Irwin Belk T&F Center - Charlotte, NC

Women's 800 Meters

Top↑
PL NAME YEAR TEAM TIME TIME TIME
1 Helene Holm Gottlieb SO-2 Temple 2:08.51 2:21.37 2:21.37
2 Infinnatie Rowe SO-2 Morgan State 2:12.19 2:26.73 1:53.69
3 Eleni Daughters SO-2 Davidson 2:13.33 1:57.33 2:53.33
4 Valencia McDowell JR-3 Morgan State 2:13.46 2:32.15 2:45.49
5 Phylissa Greeley SR-4 Appalachian State 2:13.92 2:40.71 2:34.01
6 Sydney Benson JR-3 Howard 2:14.41 2:25.17 2:33.23
7 Charlee Boxall JR-3 Lee (Tenn.) 2:14.69 2:30.86 2:07.96
8 Sophia Mills SR-4 Davidson 2:15.06 1:46.70 1:35.90
9 Madison Paraskeva JR-3 Wofford 2:15.17 2:35.45 2:09.77
10 McKenzie Gelvin SO-2 Temple 2:15.65 1:40.39 1:36.32
11 D'Amani Bryant SO-2 Charlotte 2:15.70 2:44.20 2:17.06
12 Brooke Smith SR-4 Shawnee State 2:16.01 2:24.17 1:59.69
13 Katy Foltz SR-4 Otterbein 2:16.49 2:00.12 2:57.44
14 Anna Brandt SO-2 Cleveland St. 2:16.55 2:09.73 2:05.63
15 Elisa Sargent SR-4 Appalachian State 2:16.59 2:24.79 2:57.57
16 Kaitlin Derry SO-2 Wake Forest 2:17.64 2:21.77 2:14.89
17 Aja Jackson   Unattached 2:17.85 2:20.61 2:26.13
18 Sommer McKenzie JR-3 Wofford 2:18.50 2:44.82 2:11.58
19 Heather Feuchtenberger SO-2 East Tenn. St. 2:18.52 2:29.61 2:12.98
20 Melanie White FR-1 Howard 2:18.87 2:50.81 2:53.59
21 Claire Nieusma SR-4 Davidson 2:19.53 2:29.30 2:41.86
22 Kylee Frady FR-1 Appalachian State 2:19.88 2:56.25 2:56.25
23 Kaydi Ann Wint JR-3 Shaw 2:20.88 2:03.98 2:11.02
24 Sarah Bedell SR-4 Otterbein 2:21.42 2:24.25 2:04.45
25 Caroline Willis JR-3 Davidson 2:21.57 2:55.55 1:43.35
26 Julia Wiemken SO-2 Kutztown 2:22.03 3:04.64 2:46.18
27 Cayla Coleman SR-4 LIU Brooklyn 2:22.06 3:04.68 1:59.33
28 Stephanie Bresadola SR-4 Kutztown 2:22.56 1:54.05 1:42.65
29 Linda Jebet FR-1 West Virginia 2:22.84 1:41.42 2:44.27
30 Gillian Kasitz SO-2 Queens (N.C.) 2:22.86 2:58.58 2:45.72
31 Shellbi Chapman SO-2 East Carolina 2:22.97 1:47.23 2:30.12
32 Lacey Duvall SR-4 Lee (Tenn.) 2:23.26 2:44.75 2:30.43
33 Emily Lord SO-2 East Tenn. St. 2:23.39 2:10.49 2:59.24
34 Tara Hernandez SO-2 LIU Brooklyn 2:23.42 2:50.67 2:36.33
35 Kassidy Dill SO-2 UNC-Greensboro 2:23.45 2:43.54 2:34.93
36 Kathryn Doherty Junior Liberty 2:23.92 2:23.92 2:58.46
37 Julia Otranto SR-4 Belmont Abbey 2:24.11 3:03.02 3:01.58
38 Jamie Barnett SR-4 Wofford 2:24.38 3:06.25 3:03.37
39 Peyton Wood FR-1 Western Carolina 2:24.76 2:26.21 2:40.69
40 Maggie Kiper SO-2 Morehead State 2:25.18 2:12.12 2:51.32
41 Abbey Peters SR-4 Edinboro 2:25.82 2:22.91 2:19.99
42 Cate Gifford SO-2 Lee (Tenn.) 2:26.09 2:31.94 3:04.08
43 Emily Louk FR-1 West Liberty 2:26.45 2:58.67 2:32.31
44 Julie Stratton SR-4 Kutztown 2:26.53 1:48.44 2:48.51
45 Devon Montanari FR-1 Kutztown 2:26.55 2:54.40 1:54.31
46 Sydney Young JR-3 Morehead State 2:26.78 2:25.32 1:50.09
47 Kate Mattison FR-1 Western Carolina 2:26.81 1:54.52 1:50.11
48 Amy Turlington SR-4 Gardner-Webb 2:27.32 2:19.96 3:10.05
49 Alyssa Hamilton JR-3 Cumberlands 2:27.55 1:55.09 1:53.62
50 Hayley Singletary SR-4 Southern Wesleyan 2:27.76 2:21.85 2:05.60
51 Jordyn Rivenbark SR-4 Queens (N.C.) 2:28.00 1:52.48 2:17.64
52 Jordan Hauser SO-2 Edinboro 2:28.51 2:37.42 1:46.93
53 Lydia Gambrell SO-2 Anderson (S.C.) 2:29.55 2:32.55 1:55.16
54 Rachael Englund JR-3 West Virginia Wesleyan 2:29.64 2:38.62 1:46.25
55 Shamia Thompson SR-4 USC Upstate 2:30.32 2:16.80 2:07.78
56 Lauryn Tumey SO-2 Wingate 2:30.37 2:55.94 2:55.94
57 Caroline Felkel FR-1 Converse 2:30.55 1:52.92 2:53.14
58 Alyssa Woods FR-1 Glenville St. 2:30.79 2:54.92 2:50.40
59 Margaret Wiedeman SR-4 Truett-McConnell 2:30.86 2:45.95 2:32.37
60 Kaleigh Roach SR-4 North Greenville 2:31.09 1:53.32 2:41.67
61 Mia Davis SO-2 USC Upstate 2:31.34 3:01.61 1:55.02
62 Korrin Spurlock FR-1 Cleveland St. 2:32.44 2:46.16 3:10.55
63 Julie Diaz SO-2 Wingate 2:32.55 2:23.40 1:55.94
64 Emilee Spangler SO-2 West Virginia Wesleyan 2:32.60 2:23.45 2:40.23
65 Ashleigh Thomson FR-1 Wingate 2:32.65 2:08.23 2:12.81
66 Kylie Stangle FR-1 East Stroudsburg 2:32.95 2:58.96 1:57.78
67 Allison Rogiers JR-3 Otterbein 2:33.01 2:29.95 2:03.94
68 Michaela Lind SO-2 Edinboro 2:33.35 3:08.62 3:00.96
69 Khasmine Harris FR-1 Limestone 2:33.38 2:57.92 2:16.51
70 Siena Gates FR-1 Western Carolina 2:33.71 2:27.57 1:55.29
71 Tori Carr FR-1 West Virginia Wesleyan 2:33.81 2:26.12 2:19.97
72 Heather McArdle FR-1 Cleveland St. 2:34.03 2:49.44 2:18.63
73 Tashay Roberts SR-4 Shaw 2:34.65 2:25.38 3:08.68
74 Keely Weber FR-1 Belmont Abbey 2:35.44 2:35.44 2:26.12
75 Amaya Elliott FR-1 Truett-McConnell 2:35.66 2:01.42 2:12.32
76 Allie Leavitt FR-1 USC Upstate 2:35.75 3:03.79 3:20.92
77 Madison Lewellen FR-1 Southern Wesleyan 2:36.37 3:06.08 2:06.66
78 Taylor Broadwell FR-1 Southern Wesleyan 2:39.17 3:03.05 3:22.15
79 Brawnwyn Koellner FR-1 USC Upstate 2:40.99 3:27.68 3:00.31
80 Danae Audibert FR-1 Limestone 2:41.09 2:45.93 3:16.53
81 Lauren Reightneour SO-2 East Stroudsburg 2:41.57 2:52.88 2:28.65
82 Elizabeth Noland SR-4 Converse 2:42.07 2:56.66 3:03.14
83 Rachel Field FR-1 Morgan State 2:42.75 2:10.20 2:47.64
84 Mckenzie Jack FR-1 West Liberty 2:44.10 3:00.51 2:22.77
85 Carliann Broome SR-4 Emmanuel (Ga.) 2:44.34 2:34.48 2:39.41
86 Alisa Bowling FR-1 Cumberlands 2:45.75 2:44.10 2:17.58
87 Natalie Ardis SO-2 Anderson (S.C.) 2:48.86 2:38.73 3:37.83
88 Ryan Wilson FR-1 West Liberty 2:54.09 3:02.80 2:12.31
89 Erin Putnam SR-4 Emmanuel (Ga.) 3:06.02 3:00.44 2:43.70
  Chantai Smith SR-4 Morgan State DNF DNF DNF
  Julia Brown SR-4 East Carolina DNF DNF DNF
  Jasmine Douglas-Grant FR-1 LIU Brooklyn DNF DNF DNF
Women's 800 Meters Section 1
PL NAME YEAR TEAM TIME TIME TIME TIME
1 Helene Holm Gottlieb SO-2 Temple 2:08.51 2:27.79 2:12.37 2:32.93
2 Infinnatie Rowe SO-2 Morgan State 2:12.19 2:05.58 2:49.21 2:05.58
3 Eleni Daughters SO-2 Davidson 2:13.33 1:56.00 1:40.00 2:29.33
4 Valencia McDowell JR-3 Morgan State 2:13.46 2:22.81 2:25.48 2:49.50
5 Phylissa Greeley SR-4 Appalachian State 2:13.92 2:46.06 1:36.43 2:28.66
6 Sydney Benson JR-3 Howard 2:14.41 2:30.54 1:36.78 2:00.97
8 Sophia Mills SR-4 Davidson 2:15.06 2:33.97 1:44.00 2:23.17
19 Heather Feuchtenberger SO-2 East Tenn. St. 2:18.52 2:24.06 1:38.35 1:53.59
  Chantai Smith SR-4 Morgan State DNF DNF DNF DNF
Women's 800 Meters Section 2
PL NAME YEAR TEAM TIME TIME TIME TIME
9 Madison Paraskeva JR-3 Wofford 2:15.17 2:24.64 1:40.03 1:50.84
10 McKenzie Gelvin SO-2 Temple 2:15.65 1:53.95 1:39.03 2:26.51
11 D'Amani Bryant SO-2 Charlotte 2:15.70 2:11.63 1:48.56 2:17.06
13 Katy Foltz SR-4 Otterbein 2:16.49 1:53.29 2:31.51 1:49.20
14 Anna Brandt SO-2 Cleveland St. 2:16.55 1:42.42 1:36.95 2:28.84
15 Elisa Sargent SR-4 Appalachian State 2:16.59 2:07.03 1:49.28 1:45.18
16 Kaitlin Derry SO-2 Wake Forest 2:17.64 1:47.36 2:38.29 1:59.75
21 Claire Nieusma SR-4 Davidson 2:19.53 2:33.49 2:00.00 2:47.44
23 Kaydi Ann Wint JR-3 Shaw 2:20.88 2:13.84 2:11.02 3:03.15
Women's 800 Meters Section 3
PL NAME YEAR TEAM TIME TIME TIME
7 Charlee Boxall JR-3 Lee (Tenn.) 1:47.76 2:49.71 2:14.69
12 Brooke Smith SR-4 Shawnee State 2:30.98 1:59.69 2:16.01
20 Melanie White FR-1 Howard 2:17.49 2:11.93 2:18.87
22 Kylee Frady FR-1 Appalachian State 2:24.08 2:46.46 2:19.88
25 Caroline Willis JR-3 Davidson 2:58.38 1:56.09 2:21.57
26 Julia Wiemken SO-2 Kutztown 2:29.14 2:04.99 2:22.03
27 Cayla Coleman SR-4 LIU Brooklyn 2:16.38 2:32.01 2:22.06
28 Stephanie Bresadola SR-4 Kutztown 2:55.35 2:23.99 2:22.56
29 Linda Jebet FR-1 West Virginia 2:04.27 1:59.99 2:22.84
38 Jamie Barnett SR-4 Wofford 2:40.27 1:51.18 2:24.38
46 Sydney Young JR-3 Morehead State 2:38.53 2:29.72 2:26.78
  Julia Brown SR-4 East Carolina DNF DNF DNF
Women's 800 Meters Section 4
PL NAME YEAR TEAM TIME TIME
17 Aja Jackson   Unattached 2:57.83 2:17.85
18 Sommer McKenzie JR-3 Wofford 2:19.89 2:18.50
24 Sarah Bedell SR-4 Otterbein 2:14.35 2:21.42
30 Gillian Kasitz SO-2 Queens (N.C.) 2:05.72 2:22.86
32 Lacey Duvall SR-4 Lee (Tenn.) 3:03.38 2:23.26
34 Tara Hernandez SO-2 LIU Brooklyn 1:40.40 2:23.42
35 Kassidy Dill SO-2 UNC-Greensboro 2:24.89 2:23.45
36 Kathryn Doherty Junior Liberty 2:16.73 2:23.92
37 Julia Otranto SR-4 Belmont Abbey 2:57.26 2:24.11
44 Julie Stratton SR-4 Kutztown 2:57.31 2:26.53
48 Amy Turlington SR-4 Gardner-Webb 2:49.42 2:27.32
50 Hayley Singletary SR-4 Southern Wesleyan 2:44.02 2:27.76
55 Shamia Thompson SR-4 USC Upstate 2:04.77 2:30.32
67 Allison Rogiers JR-3 Otterbein 2:17.71 2:33.01
  Jasmine Douglas-Grant FR-1 LIU Brooklyn DNF DNF
Women's 800 Meters Section 5
PL NAME YEAR TEAM TIME TIME TIME TIME TIME TIME TIME
39 Peyton Wood FR-1 Western Carolina 2:27.66 2:34.90 2:10.29 2:24.76 2:08.84 2:00.15 1:41.34
40 Maggie Kiper SO-2 Morehead State 2:01.96 2:10.67 3:05.83 2:25.18 3:07.29 2:09.21 2:30.99
41 Abbey Peters SR-4 Edinboro 2:38.95 2:11.24 3:02.28 2:25.82 2:05.41 2:11.24 2:28.74
42 Cate Gifford SO-2 Lee (Tenn.) 2:52.39 3:08.46 1:56.88 2:26.09 2:49.47 2:10.02 2:33.40
45 Devon Montanari FR-1 Kutztown 2:26.55 2:45.61 1:44.05 2:26.55 2:16.30 3:01.73 2:54.40
51 Jordyn Rivenbark SR-4 Queens (N.C.) 3:06.48 2:16.16 2:35.40 2:28.00 2:08.76 1:56.92 2:17.64
52 Jordan Hauser SO-2 Edinboro 2:32.97 2:47.82 3:01.19 2:28.51 2:46.34 2:27.03 2:41.88
56 Lauryn Tumey SO-2 Wingate 2:06.31 2:25.86 2:24.36 2:30.37 2:55.94 2:24.36 2:04.81
60 Kaleigh Roach SR-4 North Greenville 2:53.76 2:59.80 3:10.38 2:31.09 2:22.03 2:03.90 2:59.80
61 Mia Davis SO-2 USC Upstate 2:47.99 2:38.91 3:10.69 2:31.34 2:31.34 2:14.70 2:40.42
63 Julie Diaz SO-2 Wingate 2:26.45 2:23.40 1:55.94 2:32.55 2:32.55 2:06.62 2:02.04
70 Siena Gates FR-1 Western Carolina 2:49.09 2:27.57 2:18.34 2:33.71 2:12.19 2:59.84 1:53.75
Women's 800 Meters Section 6
PL NAME YEAR TEAM TIME TIME TIME TIME TIME TIME
31 Shellbi Chapman SO-2 East Carolina 2:22.97 3:03.01 1:44.37 2:30.12 2:14.40 3:03.01
33 Emily Lord SO-2 East Tenn. St. 2:23.39 2:03.32 2:32.00 1:51.85 2:50.64 2:09.06
43 Emily Louk FR-1 West Liberty 2:26.45 2:05.95 2:52.81 2:03.02 2:22.06 2:03.02
49 Alyssa Hamilton JR-3 Cumberlands 2:27.55 3:04.44 2:11.32 2:48.21 2:14.27 2:08.37
54 Rachael Englund JR-3 West Virginia Wesleyan 2:29.64 2:56.58 1:55.23 1:47.74 2:37.13 2:17.67
57 Caroline Felkel FR-1 Converse 2:30.55 2:53.14 2:50.13 2:21.52 2:24.53 2:41.09
71 Tori Carr FR-1 West Virginia Wesleyan 2:33.81 3:10.73 3:04.58 2:46.12 3:04.58 2:23.05
72 Heather McArdle FR-1 Cleveland St. 2:34.03 2:06.31 2:17.09 3:04.84 1:50.91 2:47.90
80 Danae Audibert FR-1 Limestone 2:41.09 2:26.60 3:03.65 3:11.70 3:16.53 2:26.60
86 Alisa Bowling FR-1 Cumberlands 2:45.75 2:14.26 3:23.88 3:07.30 1:57.69 3:15.59
Women's 800 Meters Section 7
PL NAME YEAR TEAM TIME TIME TIME TIME TIME
47 Kate Mattison FR-1 Western Carolina 2:26.81 3:06.45 2:59.11 2:56.18 2:50.30
53 Lydia Gambrell SO-2 Anderson (S.C.) 2:29.55 3:03.95 2:41.52 2:11.61 2:10.11
58 Alyssa Woods FR-1 Glenville St. 2:30.79 2:48.89 2:39.84 2:54.92 2:29.29
59 Margaret Wiedeman SR-4 Truett-McConnell 2:30.86 2:00.69 2:44.44 2:21.81 3:07.07
62 Korrin Spurlock FR-1 Cleveland St. 2:32.44 1:52.81 2:49.21 3:18.18 2:17.20
64 Emilee Spangler SO-2 West Virginia Wesleyan 2:32.60 3:01.60 2:41.76 3:16.86 3:15.33
66 Kylie Stangle FR-1 East Stroudsburg 2:32.95 3:08.13 1:53.19 2:23.78 3:12.72
69 Khasmine Harris FR-1 Limestone 2:33.38 2:47.19 2:05.78 2:41.05 3:05.59
73 Tashay Roberts SR-4 Shaw 2:34.65 1:55.99 2:37.75 2:56.31 1:48.26
74 Keely Weber FR-1 Belmont Abbey 2:35.44 3:18.97 2:32.34 3:09.64 3:12.75
76 Allie Leavitt FR-1 USC Upstate 2:35.75 3:05.35 2:13.95 2:48.21 2:24.85
78 Taylor Broadwell FR-1 Southern Wesleyan 2:39.17 2:04.16 3:20.56 3:15.78 2:23.26
83 Rachel Field FR-1 Morgan State 2:42.75 2:46.01 2:46.01 2:18.34 3:23.44
Women's 800 Meters Section 8
PL NAME YEAR TEAM TIME TIME TIME TIME TIME TIME
65 Ashleigh Thomson FR-1 Wingate 1:52.97 2:34.18 2:14.34 3:03.18 2:32.65 2:23.49
68 Michaela Lind SO-2 Edinboro 2:28.75 1:56.55 2:53.29 3:04.02 2:33.35 2:41.02
75 Amaya Elliott FR-1 Truett-McConnell 2:37.22 2:34.11 3:14.58 2:54.34 2:35.66 3:08.35
77 Madison Lewellen FR-1 Southern Wesleyan 1:58.85 2:34.81 3:13.90 3:02.96 2:36.37 2:03.54
79 Brawnwyn Koellner FR-1 USC Upstate 2:08.80 3:29.29 3:16.41 3:14.80 2:40.99 2:28.11
81 Lauren Reightneour SO-2 East Stroudsburg 1:56.33 2:38.34 3:21.97 2:43.19 2:41.57 3:30.05
82 Elizabeth Noland SR-4 Converse 2:19.38 2:55.04 2:30.73 1:55.07 2:42.07 3:06.38
84 Mckenzie Jack FR-1 West Liberty 3:30.05 3:15.28 2:01.44 1:59.80 2:44.10 2:47.39
85 Carliann Broome SR-4 Emmanuel (Ga.) 3:10.64 3:13.93 3:05.71 2:27.91 2:44.34 2:01.62
87 Natalie Ardis SO-2 Anderson (S.C.) 2:40.42 3:32.77 2:37.04 3:02.37 2:48.86 3:36.14
88 Ryan Wilson FR-1 West Liberty 3:09.76 3:34.13 2:31.46 3:37.62 2:54.09 3:39.36
89 Erin Putnam SR-4 Emmanuel (Ga.) 3:45.09 2:21.38 3:33.93 2:12.08 3:06.02 3:26.49